KPAWILLO7 Weather Reports


time (UTC)temp
F
wind
direction
speed
knots
gust
knots
rain 1hr
in
rain 24hr
in
rain mn
in
humidity
%
barometer
mb
20260504203004 72 351 4.3 7.8 0.00 0.00 0.00 32 1010.8
20260504202504 72 2 4.3 10.4 0.00 0.00 0.00 31 1010.8
20260504202003 72 2 5.2 10.4 0.00 0.00 0.00 32 1010.9
20260504201503 72 1 5.2 10.4 0.00 0.00 0.00 31 1010.8
20260504201004 73 2 6.1 8.7 0.00 0.00 0.00 31 1010.9
20260504200503 72 1 5.2 8.7 0.00 0.00 0.00 31 1011.0
20260504200003 72 2 6.1 9.6 0.00 0.00 0.00 31 1010.8
20260504195503 72 1 6.1 9.6 0.00 0.00 0.00 32 1010.8
20260504195004 72 1 6.1 9.6 0.00 0.00 0.00 31 1011.0
20260504194503 72 1 5.2 9.6 0.00 0.00 0.00 32 1010.9
20260504194003 72 1 3.5 7.8 0.00 0.00 0.00 32 1011.0
20260504193504 72 2 4.3 6.1 0.00 0.00 0.00 31 1011.1
20260504193003 72 2 4.3 10.4 0.00 0.00 0.00 32 1011.0
20260504192503 72 2 3.5 10.4 0.00 0.00 0.00 31 1011.2
20260504192003 72 2 3.5 6.1 0.00 0.00 0.00 31 1011.2
20260504191504 71 1 5.2 7.8 0.00 0.00 0.00 32 1011.3
20260504190503 72 1 6.1 7.8 0.00 0.00 0.00 32 1011.5
20260504190004 71 1 6.1 8.7 0.00 0.00 0.00 32 1011.5
20260504185503 71 1 6.1 8.7 0.00 0.00 0.00 32 1011.6
20260504185003 71 2 6.1 6.1 0.00 0.00 0.00 31 1011.7
20260504184004 70 1 5.2 7.8 0.00 0.00 0.00 31 1011.8
20260504183503 70 2 6.1 7.8 0.00 0.00 0.00 32 1011.9
20260504183004 71 2 5.2 7.8 0.00 0.00 0.00 32 1011.9
20260504182503 71 2 5.2 7.8 0.00 0.00 0.00 32 1011.9
20260504182004 71 2 5.2 7.8 0.00 0.00 0.00 33 1012.1
20260504181504 71 2 5.2 7.0 0.00 0.00 0.00 32 1012.1
20260504181003 70 1 7.0 8.7 0.00 0.00 0.00 34 1012.1
20260504180504 70 1 6.1 8.7 0.00 0.00 0.00 34 1012.2
20260504180004 70 1 5.2 8.7 0.00 0.00 0.00 34 1012.4
20260504175503 70 1 4.3 5.2 0.00 0.00 0.00 33 1012.4
20260504175003 70 2 5.2 7.8 0.00 0.00 0.00 33 1012.4
20260504174505 69 1 6.1 11.3 0.00 0.00 0.00 33 1012.5
20260504174004 69 2 7.0 11.3 0.00 0.00 0.00 33 1012.6
20260504173504 69 1 6.1 8.7 0.00 0.00 0.00 32 1012.7
20260504173004 70 2 7.0 11.3 0.00 0.00 0.00 34 1012.7
20260504172503 69 2 7.8 11.3 0.00 0.00 0.00 35 1012.8
20260504172004 69 2 6.1 8.7 0.00 0.00 0.00 33 1012.8
20260504171003 69 2 4.3 11.3 0.00 0.00 0.00 33 1012.9
20260504150503 64 1 2.6 5.2 0.00 0.00 0.00 42 1014.4
20260504141003 60 2 4.3 7.8 0.00 0.00 0.00 52 1014.5
20260504140504 60 2 3.5 7.8 0.00 0.00 0.00 53 1014.6
20260504130504 56 2 4.3 5.2 0.00 0.00 0.00 63 1014.9
20260504110503 49 2 3.5 7.8 0.00 0.00 0.00 76 1015.6
20260504100503 47 2 2.6 3.5 0.00 0.00 0.00 72 1015.5
20260504082003 49 1 3.5 4.3 0.00 0.00 0.00 57 1015.3
20260504081504 49 1 4.3 4.3 0.00 0.00 0.00 56 1015.4
20260504081003 49 2 4.3 6.1 0.00 0.00 0.00 55 1015.3
20260504050504 50 1 1.7 2.6 0.00 0.00 0.00 47 1015.1
20260504050003 50 1 1.7 2.6 0.00 0.00 0.00 47 1015.0
20260504045504 50 1 2.6 3.5 0.00 0.00 0.00 47 1015.0
20260504045003 51 1 2.6 3.5 0.00 0.00 0.00 46 1015.0
20260504044504 51 2 3.5 4.3 0.00 0.00 0.00 46 1015.0
20260504044003 51 1 3.5 4.3 0.00 0.00 0.00 46 1015.0
20260504043504 51 2 3.5 4.3 0.00 0.00 0.00 46 1015.0
20260504043004 51 1 2.6 4.3 0.00 0.00 0.00 45 1014.9
20260504042503 51 2 3.5 4.3 0.00 0.00 0.00 45 1014.8
20260504042003 51 1 3.5 5.2 0.00 0.00 0.00 45 1014.7
20260504041004 51 1 2.6 5.2 0.00 0.00 0.00 45 1014.6
20260504040503 51 1 3.5 5.2 0.00 0.00 0.00 45 1014.6
20260504040004 51 1 3.5 5.2 0.00 0.00 0.00 45 1014.7
20260504035004 52 1 2.6 3.5 0.00 0.00 0.00 45 1014.6
20260504034503 52 1 3.5 3.5 0.00 0.00 0.00 44 1014.5
20260504034003 52 2 3.5 4.3 0.00 0.00 0.00 44 1014.5
20260504033503 52 2 3.5 5.2 0.00 0.00 0.00 43 1014.4
20260504033003 52 1 3.5 6.1 0.00 0.00 0.00 44 1014.5
20260504032004 52 1 4.3 6.1 0.00 0.00 0.00 44 1014.5
20260504031503 52 2 4.3 11.3 0.00 0.00 0.00 43 1014.4
20260504031003 52 2 4.3 11.3 0.00 0.00 0.00 43 1014.4
20260504030503 52 1 3.5 6.1 0.00 0.00 0.00 43 1014.4
20260504030004 52 2 3.5 4.3 0.00 0.00 0.00 44 1014.3
20260504024504 53 1 3.5 7.0 0.00 0.00 0.00 43 1014.5
20260504024003 53 2 3.5 7.0 0.00 0.00 0.00 43 1014.5
20260504023504 53 2 3.5 6.1 0.00 0.00 0.00 42 1014.4
20260504023003 53 2 3.5 6.1 0.00 0.00 0.00 42 1014.4
20260504022503 53 1 3.5 6.1 0.00 0.00 0.00 42 1014.5
20260504022004 53 1 3.5 6.1 0.00 0.00 0.00 42 1014.5
20260504021503 53 1 3.5 6.1 0.00 0.00 0.00 42 1014.4
20260504021004 53 1 3.5 3.5 0.00 0.00 0.00 42 1014.4
20260504020503 53 1 3.5 4.3 0.00 0.00 0.00 42 1014.4
20260504020004 53 1 3.5 4.3 0.00 0.00 0.00 42 1014.3
20260504015503 53 1 2.6 4.3 0.00 0.00 0.00 42 1014.4
20260504015004 53 2 2.6 3.5 0.00 0.00 0.00 42 1014.4
20260504014503 54 2 3.5 4.3 0.00 0.00 0.00 41 1014.3
20260504014003 54 2 2.6 4.3 0.00 0.00 0.00 41 1014.2
20260504013503 54 1 2.6 4.3 0.00 0.00 0.00 41 1014.2
20260504013004 54 1 2.6 3.5 0.00 0.00 0.00 41 1014.2
20260504012503 54 2 2.6 3.5 0.00 0.00 0.00 41 1014.2
20260504011503 54 1 2.6 2.6 0.00 0.00 0.00 40 1014.0
20260504010003 54 1 1.7 2.6 0.00 0.00 0.00 40 1013.8
20260504005504 55 1 2.6 3.5 0.00 0.00 0.00 39 1013.7
20260504005004 55 1 2.6 3.5 0.00 0.00 0.00 39 1013.7
20260504004503 55 1 2.6 2.6 0.00 0.00 0.00 39 1013.7
20260504003503 55 1 2.6 3.5 0.00 0.00 0.00 38 1013.5
20260504003004 56 1 2.6 4.3 0.00 0.00 0.00 38 1013.4
20260504002504 56 2 2.6 4.3 0.00 0.00 0.00 37 1013.4
20260504001504 56 1 2.6 4.3 0.00 0.00 0.00 36 1013.3
20260504001003 56 2 2.6 4.3 0.00 0.00 0.00 36 1013.3
20260504000504 57 1 2.6 3.5 0.00 0.00 0.00 36 1013.2
20260504000005 57 1 3.5 4.3 0.00 0.00 0.00 35 1013.2
20260503235503 57 2 2.6 4.3 0.00 0.00 0.00 34 1013.1
20260503235003 58 1 3.5 6.1 0.00 0.00 0.00 34 1013.1
20260503234503 58 2 4.3 6.1 0.00 0.00 0.00 34 1013.1
20260503234003 58 2 5.2 13.9 0.00 0.00 0.00 33 1013.0
20260503233503 58 2 5.2 13.9 0.00 0.00 0.00 32 1013.0
20260503233003 58 2 4.3 7.8 0.00 0.00 0.00 33 1012.9
20260503232503 58 1 5.2 7.8 0.00 0.00 0.00 33 1012.9
20260503232005 58 2 6.1 6.1 0.00 0.00 0.00 32 1012.8
20260503231503 59 1 5.2 7.8 0.00 0.00 0.00 32 1012.9
20260503230503 59 2 6.1 7.0 0.00 0.00 0.00 32 1012.9
20260503230004 59 1 6.1 7.0 0.00 0.00 0.00 31 1012.8
20260503225504 59 2 4.3 6.1 0.00 0.00 0.00 32 1012.7
20260503225003 59 2 5.2 9.6 0.00 0.00 0.00 31 1012.7
20260503224503 59 1 7.0 11.3 0.00 0.00 0.00 31 1012.7
20260503224003 59 1 7.0 12.2 0.00 0.00 0.00 30 1012.7
20260503223503 60 1 6.1 12.2 0.00 0.00 0.00 30 1012.7
20260503223003 60 1 5.2 7.0 0.00 0.00 0.00 30 1012.6
20260503222503 60 2 6.1 9.6 0.00 0.00 0.00 29 1012.7
20260503222003 59 1 6.1 9.6 0.00 0.00 0.00 30 1012.7
20260503221503 59 2 6.1 9.6 0.00 0.00 0.00 30 1012.6
20260503221003 59 1 7.8 13.9 0.00 0.00 0.00 30 1012.6
20260503215503 59 2 7.0 12.2 0.00 0.00 0.00 29 1012.6
20260503215004 59 1 7.8 10.4 0.00 0.00 0.00 30 1012.7
20260503214504 59 1 7.8 10.4 0.00 0.00 0.00 29 1012.5
20260503214003 59 1 7.8 10.4 0.00 0.00 0.00 29 1012.6
20260503213003 59 1 7.8 15.6 0.00 0.00 0.00 29 1012.5
20260503212503 59 1 7.0 15.6 0.00 0.00 0.00 28 1012.5
20260503212004 60 1 7.0 12.2 0.00 0.00 0.00 29 1012.5
20260503211503 59 2 7.8 13.9 0.00 0.00 0.00 29 1012.5
20260503211003 59 1 8.7 13.9 0.00 0.00 0.00 30 1012.6
20260503210503 59 1 9.6 16.5 0.00 0.00 0.00 29 1012.6
20260503210004 60 1 8.7 16.5 0.00 0.00 0.00 30 1012.6
20260503204504 59 2 7.0 11.3 0.00 0.00 0.00 32 1012.8
20260503204003 58 1 7.8 11.3 0.00 0.00 0.00 31 1012.8
20260503203504 58 2 7.8 11.3 0.00 0.00 0.00 31 1012.9